• MPC Preparation (Info)

  • MPEC 2014-M35 : 2014 MC6

    The following Minor Planet Electronic Circular may be linked-to from your own Web pages, but must not otherwise be redistributed electronically.

    A form allowing access to any MPEC is at the bottom of this page.


    Read MPEC 2014-M34 Read MPEC 2014-M36


    M.P.E.C. 2014-M35                                Issued 2014 June 25, 13:20 UT
    
         The Minor Planet Electronic Circulars contain information on unusual
             minor planets and routine data on comets.  They are published
       on behalf of Commission 20 of the International Astronomical Union by the
              Minor Planet Center, Smithsonian Astrophysical Observatory,
                              Cambridge, MA 02138, U.S.A.
    
                 Prepared using the Tamkin Foundation Computer Network
    
                                  MPC@CFA.HARVARD.EDU
                URL https://www.minorplanetcenter.net/    ISSN 1523-6714
    
                                       2014 MC6
    
    Observations:
         K14M06C* C2014 06 22.16458 10 24 34.26 +17 28 17.3          20.1 RoEM035291
         K14M06C  C2014 06 22.16822 10 24 34.33 +17 28 12.2          20.1 RoEM035291
         K14M06C  C2014 06 22.17186 10 24 34.32 +17 28 05.2          20.6 RoEM035291
         K14M06C KC2014 06 23.15879 10 24 45.91 +17 00 32.8          20.0 RoEM035291
         K14M06C KC2014 06 23.16123 10 24 45.92 +17 00 28.2          19.5 RoEM035291
         K14M06C KC2014 06 23.16365 10 24 45.94 +17 00 23.9          19.8 RoEM035291
         K14M06C KC2014 06 24.15805 10 24 54.12 +16 32 00.6          19.5 RoEM035291
         K14M06C KC2014 06 24.16048 10 24 54.11 +16 31 55.9          20.3 RoEM035291
         K14M06C KC2014 06 24.16291 10 24 54.11 +16 31 51.4          19.9 RoEM035291
         K14M06C KC2014 06 25.15619 10 24 58.39 +16 02 49.4          19.6 RoEM035291
         K14M06C  C2014 06 25.15787 10 24 58.38 +16 02 46.8          20.4 VqEM035G96
         K14M06C KC2014 06 25.15839 10 24 58.40 +16 02 46.1          20.0 RoEM035291
         K14M06C KC2014 06 25.16058 10 24 58.39 +16 02 42.2          20.0 RoEM035291
         K14M06C  C2014 06 25.16245 10 24 58.42 +16 02 38.3          20.2 VqEM035G96
         K14M06C  C2014 06 25.16702 10 24 58.42 +16 02 30.0          20.7 VqEM035G96
         K14M06C  C2014 06 25.17160 10 24 58.38 +16 02 21.9          20.4 VqEM035G96
    
    Observer details:
    291 LPL/Spacewatch II.  Observer R. A. Mastaler.  1.8-m f/2.7 reflector + CCD.
    G96 Mt. Lemmon Survey.  Observer E. J. Christensen.  Measurers
        E. J. Christensen, A. R. Gibbs, A. D. Grauer, R. E. Hill, J. A. Johnson,
        R. A. Kowalski, S. M. Larson, R. J. Sanders, F. C. Shelly.  1.5-m
        reflector + CCD.
    
    Orbital elements:
    2014 MC6                                                 Earth MOID = 0.1117 AU
    Epoch 2014 May 23.0 TT = JDT 2456800.5                  MPC
    M 344.22584              (2000.0)            P               Q
    n   0.29454214     Peri.  197.13533     +0.18734993     +0.96573024
    a   2.2371980      Node    83.94408     -0.87874309     +0.24649575
    e   0.6333036      Incl.   10.40663     -0.43898815     -0.08127086
    P   3.35           H   19.1           G   0.15           U   7
    Residuals in seconds of arc
    140622 291  0.2-  0.4-    140624 291  0.3+  0.3+    140625 291  0.3-  0.3+
    140622 291  0.3+  0.7+    140624 291  0.0   0.1-    140625 G96  0.1+  0.1-
    140622 291  0.4-  0.2-    140624 291  0.1-  0.4-    140625 G96  0.2+  0.1-
    140623 291  0.2-  0.3+    140625 291  0.4-  0.4-    140625 G96  0.3-  0.0
    140623 291  0.3-  0.1-    140625 G96  0.5-  0.2+
    140623 291  0.2-  0.3-    140625 291  0.2-  0.2+
    
    Ephemeris:
    2014 MC6                 a,e,i = 2.24, 0.63, 10                  q = 0.8204
    Date    TT    R. A. (2000) Decl.     Delta      r     Elong.  Phase     V
    2014 05 26    10 11 24.6 +27 06 16   0.6128  1.0975    80.9    65.7    20.6
    ...
    2014 06 10    10 19 12.9 +22 24 39   0.5397  0.9734    70.0    78.6    20.4
    ...
    2014 06 18    10 23 15.1 +19 18 18   0.4881  0.9171    64.3    87.0    20.4
    ...
    2014 06 24    10 24 54.1 +16 36 43   0.4446  0.8815    59.9    94.3    20.4
    2014 06 25    10 24 59.0 +16 07 36   0.4370  0.8762    59.1    95.6    20.4
    2014 06 26    10 24 59.9 +15 37 47   0.4294  0.8712    58.3    96.9    20.4
    ...
    2014 07 02    10 23 15.1 +12 22 26   0.3822  0.8454    53.2   105.5    20.6
    ...
    2014 07 10    10 13 45.0 +07 06 07   0.3188  0.8247    45.4   118.6    20.9
    ...
    2014 07 25    09 15 45.2 -06 56 28   0.2212  0.8327    30.5   141.8    22.5
    
    A. U. Tomatic                (C) Copyright 2014 MPC           M.P.E.C. 2014-M35
    

    Read MPEC 2014-M34 Read MPEC 2014-M36


    MPEC number:

    Enter an MPEC number in one of the following forms:

    • 1997-B01 (the full form)
    • J97B01 (the packed version of the full form)
    • B01 (the abbreviated form)